Weather Roundup
Issued by NWS Corpus Christi, TX

Home | Current Version | Previous Version | Text Only | Print | Product List | Glossary On
Versions: 1 2 3 4 5 6 7 8 9 10 11 12 13 14 15 16 17 18 19 20 21 22 23 24 25 26 27 28 29 30 31 32 33 34 35 36 37 38 39 40 41 42 43 44 45 46 47 48 49 50
000
ASUS44 KCRP 081310
HRRCRP

SOUTH TEXAS REGIONAL WEATHER ROUNDUP
NATIONAL WEATHER SERVICE CORPUS CHRISTI TX
700 AM CST MON FEB 08 2016


TXZ229>244-081400-
...CORPUS CHRISTI AREA OBSERVATIONS...

CITY           SKY/WX    TMP DP  RH WIND       PRES   REMARKS
CORPUS CHRISTI MOCLDY    50  40  68 N14       30.26R
NAS CORPUS CHR MOCLDY    53  48  83 NW14      30.26R
ROCKPORT       CLEAR     49  44  83 N8        30.26R
KINGSVILLE NAS PTCLDY    46  44  93 NW9       30.27R
ALICE          CLOUDY    47  40  76 N10       30.27R
FALFURRIAS     PTCLDY    48  42  77 N7        30.27R
$$

...VICTORIA AREA OBSERVATIONS...

CITY           SKY/WX    TMP DP  RH WIND       PRES   REMARKS
VICTORIA       CLOUDY    41  40  96 N9        30.30R
BEEVILLE       FAIR      50  37  62 N18G26    30.28R
PLEASANTON     PTCLDY    50  28  42 N8        30.32R
SAN ANTONIO    PTCLDY    49  30  48 N15G23    30.32R
$$

...LAREDO AREA OBSERVATIONS...

CITY           SKY/WX    TMP DP  RH WIND       PRES   REMARKS
LAREDO         PTCLDY    51  30  44 NE18      30.29
COTULLA        PTCLDY    50  29  44 NE14      30.31R
DEL RIO        PTCLDY    47  26  44 NW9       30.40R
MCALLEN        CLOUDY    55  46  71 N5        30.24R
HEBBRONVILLE   NOT AVBL
$$

...OTHER TEXAS OBSERVATIONS...

CITY           SKY/WX    TMP DP  RH WIND       PRES   REMARKS
BROWNSVILLE    MOCLDY    53  52  96 CALM      30.23R
HOUSTON        PTCLDY    46  32  58 N13       30.29R
COL. STATION   CLOUDY    45  24  43 N15       30.33R
AUSTIN         PTCLDY    45  22  40 N13       30.36R
WACO           CLOUDY    40  19  43 NW10      30.36R WCI  33
FORT WORTH     PTCLDY    42  19  39 NW15      30.32R
WICHITA FALLS  CLEAR     34  18  52 NW12      30.37R WCI  25
LUBBOCK        CLOUDY    22  12  65 NW8       30.45R
EL PASO        PTCLDY    39  16  39 W5        30.37R
$$

...MARINE OBSERVATIONS...

STATION/POSITION TIME  SKY/WX   TEMP    WIND        PRES    VSBY  WAVE   SWELL
                                AIR SEA DIR/SP/G                  HT/PER HT/PER
                 (UTC)          (F)     (DEG/KT/KT) (MB)    (MI)  (FT/S) (FT/S)
PORT ARANSAS     1300            51 59  330/  6/  7 1024.9R
BUOY 90 E PORT A 1250            64 70  340/ 17/ 19 1024.0R         2/ 3
BUOY 45 SE BAFFI 1250            65 69  240/  6/  8 1023.3R         1/ 4   2/ 6
BUOY 200 E PT IS 1250                                 N/A           2/ 6   2/ 6
BUOY 15 E GALVES 1250            56 58  320/ 16/ 17 1024.3R         2/ 3
$$



USA.gov is the U.S. government's official web portal to all federal, state and local government web resources and services.